• In Kazakhstan
  • List of Countries
  • For 7 days
  • Water Temperature
  • Satellite Maps
  • Weather Map
  • News
  • Weather Widgets
  • user-avatar
    Login

    Hourly Weather Ordino

    Today, 16 January, Wednesday

    Time Temperature Precipitation Wind Pressure Humidity
    00:00 +1°C° 0 mm 1 mps 631 mmHg 38%
    01:00 +1°C° 0 mm 1 mps 631 mmHg 35%
    02:00 +2°C° 0 mm 1 mps 631 mmHg 32%
    03:00 +2°C° 0 mm 1 mps 630 mmHg 29%
    04:00 +2°C° 0 mm 1 mps 630 mmHg 29%
    05:00 +2°C° 0 mm 1 mps 630 mmHg 29%
    06:00 +2°C° 0 mm 1 mps 630 mmHg 30%
    07:00 +3°C° 0 mm 1 mps 630 mmHg 31%
    08:00 +4°C° 0 mm 1 mps 631 mmHg 33%
    09:00 +5°C° 0 mm 1 mps 631 mmHg 34%
    10:00 +7°C° 0 mm 1 mps 632 mmHg 34%
    11:00 +8°C° 0 mm 1 mps 632 mmHg 35%
    12:00 +10°C° 0 mm 1 mps 633 mmHg 35%
    13:00 +9°C° 0 mm 1 mps 632 mmHg 39%
    14:00 +8°C° 0 mm 1 mps 631 mmHg 42%
    15:00 +8°C° 0 mm 1 mps 631 mmHg 46%
    16:00 +6°C° 0 mm 1 mps 630 mmHg 54%
    17:00 +3°C° 0 mm 1 mps 629 mmHg 62%
    18:00 0°C° 0 mm 0 mps 629 mmHg 70%
    19:00 0°C° 0 mm 0 mps 629 mmHg 70%
    20:00 0°C° 0 mm 0 mps 629 mmHg 70%
    21:00 -1°C° 0 mm 0 mps 629 mmHg 70%
    22:00 -1°C° 0 mm 0 mps 629 mmHg 70%
    23:00 -1°C° 0 mm 0 mps 629 mmHg 69%

    Tomorrow, 17 January, Thursday

    Time Temperature Precipitation Wind Pressure Humidity
    00:00 -1°C° 0 mm 0 mps 629 mmHg 68%
    01:00 -1°C° 0 mm 0 mps 628 mmHg 68%
    02:00 -1°C° 0 mm 0 mps 628 mmHg 67%
    03:00 -1°C° 0 mm 1 mps 628 mmHg 67%
    04:00 -1°C° 0 mm 1 mps 628 mmHg 69%
    05:00 -1°C° 0 mm 1 mps 628 mmHg 72%
    06:00 -1°C° 0 mm 1 mps 628 mmHg 74%
    07:00 0°C° 0 mm 1 mps 628 mmHg 73%
    08:00 +1°C° 0 mm 1 mps 629 mmHg 72%
    09:00 +2°C° 0 mm 1 mps 630 mmHg 71%
    10:00 +3°C° 0.1 mm 1 mps 630 mmHg 71%
    11:00 +2°C° 0.1 mm 2 mps 630 mmHg 72%
    12:00 +3°C° 0.1 mm 2 mps 630 mmHg 73%
    13:00 +2°C° 0.2 mm 2 mps 630 mmHg 74%
    14:00 +2°C° 0.2 mm 2 mps 630 mmHg 76%
    15:00 +1°C° 0.2 mm 2 mps 629 mmHg 78%
    16:00 -1°C° 0.2 mm 2 mps 629 mmHg 81%
    17:00 -1°C° 0.2 mm 2 mps 630 mmHg 83%
    18:00 -2°C° 0.2 mm 2 mps 630 mmHg 86%
    19:00 -3°C° 0.1 mm 2 mps 630 mmHg 87%
    20:00 -3°C° 0.1 mm 2 mps 630 mmHg 88%
    21:00 -3°C° 0.1 mm 2 mps 630 mmHg 89%
    22:00 -3°C° 0 mm 2 mps 630 mmHg 88%
    23:00 -4°C° 0 mm 2 mps 630 mmHg 87%

    Day after tomorrow, 18 January, Friday

    Time Temperature Precipitation Wind Pressure Humidity
    00:00 -4°C° 0 mm 2 mps 630 mmHg 87%
    01:00 -4°C° 0 mm 2 mps 630 mmHg 87%
    02:00 -3°C° 0 mm 1 mps 629 mmHg 88%
    03:00 -3°C° 0 mm 1 mps 629 mmHg 89%
    04:00 -3°C° 0 mm 1 mps 629 mmHg 89%
    05:00 -3°C° 0 mm 1 mps 629 mmHg 89%
    06:00 -6°C° 0 mm 2 mps 629 mmHg 88%
    07:00 -3°C° 0 mm 1 mps 629 mmHg 83%
    08:00 -2°C° 0 mm 1 mps 629 mmHg 77%
    09:00 -1°C° 0 mm 1 mps 630 mmHg 71%
    10:00 0°C° 0 mm 1 mps 630 mmHg 61%
    11:00 +2°C° 0 mm 1 mps 630 mmHg 50%
    12:00 +3°C° 0 mm 1 mps 631 mmHg 39%
    13:00 +2°C° 0 mm 1 mps 630 mmHg 43%
    14:00 +2°C° 0 mm 1 mps 630 mmHg 48%
    15:00 +1°C° 0 mm 1 mps 629 mmHg 52%
    16:00 0°C° 0 mm 1 mps 629 mmHg 59%
    17:00 -1°C° 0 mm 1 mps 629 mmHg 66%
    18:00 -2°C° 0 mm 0 mps 629 mmHg 73%
    19:00 -2°C° 0 mm 0 mps 629 mmHg 71%
    20:00 -3°C° 0 mm 0 mps 629 mmHg 70%
    21:00 -3°C° 0 mm 0 mps 629 mmHg 69%
    22:00 -3°C° 0 mm 0 mps 629 mmHg 69%
    23:00 -3°C° 0 mm 0 mps 629 mmHg 69%

    19 January, Saturday

    Time Temperature Precipitation Wind Pressure Humidity
    00:00 -4°C° 0 mm 0 mps 628 mmHg 69%
    01:00 -4°C° 0 mm 0 mps 628 mmHg 69%
    02:00 -3°C° 0 mm 1 mps 628 mmHg 68%
    03:00 -3°C° 0 mm 1 mps 628 mmHg 67%
    04:00 -3°C° 0 mm 1 mps 627 mmHg 65%
    05:00 -3°C° 0 mm 1 mps 627 mmHg 64%
    06:00 -3°C° 0 mm 1 mps 627 mmHg 62%
    07:00 -2°C° 0 mm 1 mps 628 mmHg 58%
    08:00 -2°C° 0 mm 0 mps 628 mmHg 54%
    09:00 -1°C° 0 mm 0 mps 629 mmHg 49%
    10:00 +2°C° 0 mm 1 mps 629 mmHg 48%
    11:00 +3°C° 0 mm 1 mps 629 mmHg 47%
    12:00 +3°C° 0 mm 2 mps 629 mmHg 45%
    13:00 +3°C° 0 mm 2 mps 628 mmHg 48%
    14:00 +3°C° 0 mm 2 mps 627 mmHg 51%
    15:00 +3°C° 0 mm 2 mps 627 mmHg 54%
    16:00 +1°C° 0 mm 2 mps 626 mmHg 63%
    17:00 -1°C° 0 mm 2 mps 625 mmHg 71%
    18:00 -3°C° 0 mm 2 mps 624 mmHg 80%
    19:00 -3°C° 0 mm 2 mps 624 mmHg 82%
    20:00 -2°C° 0 mm 2 mps 624 mmHg 84%
    21:00 -2°C° 0 mm 2 mps 624 mmHg 86%
    22:00 -2°C° 0.3 mm 2 mps 624 mmHg 88%
    23:00 0°C° 0.3 mm 1 mps 624 mmHg 89%

    20 January, Sunday

    Time Temperature Precipitation Wind Pressure Humidity
    00:00 +1°C° 0.3 mm 1 mps 623 mmHg 91%
    01:00 +1°C° 0.4 mm 1 mps 623 mmHg 91%
    02:00 +1°C° 0.4 mm 1 mps 623 mmHg 91%
    03:00 +1°C° 0.4 mm 1 mps 623 mmHg 91%
    04:00 +1°C° 0.6 mm 1 mps 623 mmHg 91%
    05:00 +2°C° 0.6 mm 1 mps 623 mmHg 92%
    06:00 +1°C° 0.6 mm 0 mps 623 mmHg 92%
    07:00 +2°C° 0.8 mm 1 mps 624 mmHg 91%
    08:00 +1°C° 0.8 mm 2 mps 624 mmHg 91%
    09:00 +2°C° 0.8 mm 2 mps 625 mmHg 91%
    10:00 +2°C° 0.6 mm 2 mps 625 mmHg 89%
    11:00 0°C° 0.6 mm 3 mps 625 mmHg 87%
    12:00 0°C° 0.6 mm 3 mps 626 mmHg 85%
    13:00 0°C° 0.1 mm 3 mps 626 mmHg 84%
    14:00 -1°C° 0.1 mm 4 mps 626 mmHg 83%
    15:00 -2°C° 0.1 mm 4 mps 626 mmHg 82%
    16:00 -3°C° 0.1 mm 4 mps 626 mmHg 84%
    17:00 -2°C° 0.1 mm 3 mps 626 mmHg 85%
    18:00 -4°C° 0.1 mm 3 mps 626 mmHg 87%
    19:00 -4°C° 0 mm 3 mps 627 mmHg 87%
    20:00 -5°C° 0 mm 3 mps 627 mmHg 88%
    21:00 -5°C° 0 mm 3 mps 627 mmHg 88%
    22:00 -5°C° 0 mm 3 mps 627 mmHg 88%
    23:00 -5°C° 0 mm 3 mps 627 mmHg 89%

    21 January, Monday

    Time Temperature Precipitation Wind Pressure Humidity
    00:00 -5°C° 0 mm 3 mps 627 mmHg 90%
    01:00 -5°C° 0 mm 3 mps 627 mmHg 90%
    02:00 -5°C° 0 mm 3 mps 628 mmHg 90%
    03:00 -5°C° 0 mm 3 mps 628 mmHg 89%
    04:00 -6°C° 0.1 mm 3 mps 628 mmHg 90%
    05:00 -6°C° 0.1 mm 3 mps 628 mmHg 90%
    06:00 -6°C° 0.1 mm 3 mps 628 mmHg 90%
    07:00 -5°C° 0.2 mm 4 mps 628 mmHg 88%
    08:00 -5°C° 0.2 mm 4 mps 629 mmHg 86%
    09:00 -5°C° 0.2 mm 4 mps 629 mmHg 83%
    10:00 -4°C° 0.1 mm 4 mps 629 mmHg 81%
    11:00 -4°C° 0.1 mm 4 mps 629 mmHg 78%
    12:00 -4°C° 0.1 mm 4 mps 629 mmHg 76%
    13:00 -4°C° 0.1 mm 4 mps 629 mmHg 76%
    14:00 -4°C° 0.1 mm 4 mps 629 mmHg 76%
    15:00 -4°C° 0.1 mm 4 mps 629 mmHg 77%
    16:00 -5°C° 0.1 mm 4 mps 629 mmHg 81%
    17:00 -7°C° 0.1 mm 4 mps 629 mmHg 85%
    18:00 -8°C° 0.1 mm 4 mps 628 mmHg 89%
    19:00 -8°C° 0.2 mm 4 mps 629 mmHg 88%
    20:00 -8°C° 0.2 mm 4 mps 629 mmHg 88%
    21:00 -8°C° 0.2 mm 4 mps 629 mmHg 88%
    22:00 -8°C° 0.2 mm 4 mps 629 mmHg 88%
    23:00 -8°C° 0.2 mm 4 mps 629 mmHg 87%
    Show more